Retour au catalogue

STARLINK-2492

ActifCommunicationsVLEO
NORAD 48149·PAYLOAD·🇺🇸 United States

Lancé Apr 7, 2021 depuis Cape Canaveral Space Force Station

Loading…

Prochains Passages (prochaines 24 heures)

TLE

FraisSource: CelesTrak SupGP

Époque: Sep 15, 2026, 02:00 UTC

1 48149C 21027BK  26258.08381944  .00043154  00000+0  13873-2 0  2586
2 48149  53.1589 351.5504 0000904  94.3045 296.1833 15.31689452    17

Suivez STARLINK-2492 en temps réel avec AllMySat

Download on the App Store